User: anonymous   Login
Location: *
(37.5724°S, 58.0067°E)
Time: 06:12:43
(UTC+00:00)
Language:

USA 306 - Orbit

View from above orbital plane
View from above orbital plane
View from above satellite
View from above satellite

Ground track
Ground track

The orbit data is extracted from the following two-line orbital elements,

1 45874U 20046B   20335.22479942 0.00004000  00000-0  33458-3 0    05
2 45874  53.9798  49.0384 0005141 312.1377  47.8622 14.98024506    02
Epoch (UTC): 30 November 2020 05:23:42
Eccentricity: 0.0005141
inclination: 53.9798°
perigee height: 569 km
apogee height: 576 km
right ascension of ascending node: 49.0384°
argument of perigee: 312.1377°
revolutions per day: 14.98024506
mean anomaly at epoch: 47.8622°
orbit number at epoch: 0

The dashed part of the orbit path shows where the satellite is in the earth's shadow,  

DLR